EA5ZF Weather Reports


time (UTC)temp
F
wind
direction
speed
knots
gust
knots
rain 1hr
in
rain 24hr
in
rain mn
in
humidity
%
barometer
mb
20260506203522 61 0.0 0.9 0.00 0.00 0.00 73 1013.5
20260506202522 61 338 0.9 1.7 0.00 0.00 0.00 72 1013.5
20260506201522 61 0.0 0.9 0.00 0.00 0.00 71 1013.4
20260506200522 61 0.0 0.9 0.00 0.00 0.00 71 1013.3
20260506195522 62 0.0 0.0 0.00 0.00 0.00 70 1013.1
20260506194523 62 0.0 0.9 0.00 0.00 0.00 69 1013.0
20260506193522 62 0.0 0.9 0.00 0.00 0.00 68 1012.9
20260506192520 63 0.0 1.7 0.00 0.00 0.00 69 1012.9
20260506191523 63 0.0 1.7 0.00 0.00 0.00 68 1012.8
20260506190522 63 135 1.7 3.5 0.00 0.00 0.00 68 1012.7
20260506185522 64 135 1.7 4.3 0.00 0.00 0.00 64 1012.6
20260506184522 64 135 0.9 2.6 0.00 0.00 0.00 63 1012.5
20260506183522 65 113 1.7 3.5 0.00 0.00 0.00 60 1012.4
20260506182522 65 113 1.7 4.3 0.00 0.00 0.00 59 1012.1
20260506181522 66 113 0.9 2.6 0.00 0.00 0.00 54 1012.1
20260506180522 66 0.0 1.7 0.00 0.00 0.00 55 1012.0
20260506175542 66 0.0 0.0 0.00 0.00 0.00 57 1012.0
20260506174521 66 0.0 1.7 0.00 0.00 0.00 58 1012.0
20260506173521 66 225 0.9 3.5 0.00 0.00 0.00 57 1012.0
20260506172521 65 113 0.9 3.5 0.00 0.00 0.00 59 1012.0
20260506171522 65 113 1.7 5.2 0.00 0.00 0.00 61 1012.0
20260506170522 65 135 2.6 6.1 0.00 0.00 0.00 62 1012.0
20260506165521 65 135 2.6 5.2 0.00 0.00 0.00 60 1012.0
20260506164541 65 113 1.7 6.1 0.00 0.00 0.00 63 1011.9
20260506163521 66 113 0.9 3.5 0.00 0.00 0.00 62 1012.0
20260506162522 66 135 4.3 10.4 0.00 0.00 0.00 62 1012.2
20260506161521 66 113 3.5 9.6 0.00 0.00 0.00 62 1012.2
20260506160521 65 135 2.6 7.0 0.00 0.00 0.00 63 1012.3
20260506155602 65 113 2.6 9.6 0.00 0.00 0.00 64 1012.4
20260506154541 66 68 2.6 6.1 0.00 0.00 0.00 64 1012.4
20260506153521 67 113 2.6 7.0 0.00 0.00 0.00 62 1012.4
20260506152522 66 113 3.5 8.7 0.00 0.00 0.00 63 1012.2
20260506151521 67 135 3.5 7.8 0.00 0.00 0.00 61 1012.3
20260506150521 67 45 1.7 5.2 0.00 0.00 0.00 60 1012.3
20260506145541 68 113 0.9 6.1 0.00 0.00 0.00 61 1012.3
20260506144521 67 315 0.9 4.3 0.00 0.00 0.00 62 1012.4
20260506143525 67 135 1.7 7.8 0.00 0.00 0.00 61 1012.3
20260506142525 68 0.0 2.6 0.00 0.00 0.00 61 1012.5
20260506141521 67 135 1.7 6.1 0.00 0.00 0.00 61 1012.6
20260506140601 67 45 3.5 7.8 0.00 0.00 0.00 62 1012.8
20260506135521 67 113 3.5 6.1 0.00 0.00 0.00 63 1012.7
20260506134541 67 113 3.5 7.8 0.00 0.00 0.00 64 1012.8
20260506133541 67 113 2.6 7.8 0.00 0.00 0.00 64 1012.9
20260506132521 67 135 2.6 9.6 0.00 0.00 0.00 65 1012.8
20260506131521 68 113 1.7 5.2 0.00 0.00 0.00 62 1012.8
20260506130521 67 135 1.7 6.1 0.00 0.00 0.00 60 1012.7
20260506125521 66 68 1.7 6.1 0.00 0.00 0.00 62 1012.9
20260506124541 67 135 4.3 10.4 0.00 0.00 0.00 61 1012.9
20260506123641 67 45 3.5 10.4 0.00 0.00 0.00 62 1013.0
20260506122521 68 113 2.6 9.6 0.00 0.00 0.00 60 1012.9
20260506121521 68 113 3.5 7.8 0.00 0.00 0.00 59 1013.1
20260506120521 68 158 1.7 6.1 0.00 0.00 0.00 57 1013.0
20260506115521 68 135 4.3 7.8 0.00 0.00 0.00 56 1013.1
20260506114521 67 113 4.3 9.6 0.00 0.00 0.00 60 1013.1
20260506113521 68 113 2.6 8.7 0.00 0.00 0.00 57 1013.0
20260506112521 67 113 2.6 5.2 0.00 0.00 0.00 57 1013.1
20260506111521 67 113 3.5 9.6 0.00 0.00 0.00 58 1013.1
20260506110541 67 135 4.3 10.4 0.00 0.00 0.00 58 1013.1
20260506105541 68 113 4.3 10.4 0.00 0.00 0.00 56 1013.2
20260506104521 68 113 4.3 9.6 0.00 0.00 0.00 55 1013.2
20260506103541 68 135 4.3 7.8 0.00 0.00 0.00 54 1013.2
20260506102521 68 158 3.5 7.8 0.00 0.00 0.00 55 1013.2
20260506101601 67 113 3.5 8.7 0.00 0.00 0.00 56 1013.2
20260506100521 68 135 1.7 5.2 0.00 0.00 0.00 57 1013.3
20260506095521 67 113 3.5 7.8 0.00 0.00 0.00 59 1013.4
20260506094521 67 158 2.6 6.1 0.00 0.00 0.00 59 1013.4
20260506093520 66 113 4.3 9.6 0.00 0.00 0.00 61 1013.3
20260506092524 66 135 4.3 8.7 0.00 0.00 0.00 62 1013.2
20260506091521 66 135 4.3 7.8 0.00 0.00 0.00 62 1013.1
20260506090520 67 113 1.7 7.0 0.00 0.00 0.00 61 1013.2
20260506085541 67 135 2.6 6.1 0.00 0.00 0.00 59 1013.2
20260506084541 67 0.0 1.7 0.00 0.00 0.00 53 1013.2
20260506083521 66 0.0 2.6 0.00 0.00 0.00 54 1013.3
20260506082525 65 45 0.9 2.6 0.00 0.00 0.00 56 1013.3
20260506081520 65 0.0 2.6 0.00 0.00 0.00 58 1013.2
20260506080528 65 0.0 2.6 0.00 0.00 0.00 59 1013.2
20260506073525 63 113 1.7 3.5 0.00 0.00 0.00 62 1013.1
20260506072542 65 113 1.7 4.3 0.00 0.00 0.00 59 1013.1
20260506071521 66 0.0 0.0 0.00 0.00 0.00 60 1013.0
20260506070523 64 0.0 0.0 0.00 0.00 0.00 64 1013.0
20260506061522 58 0.0 0.0 0.00 0.00 0.00 72 1012.9
20260506060522 58 135 0.9 3.5 0.00 0.00 0.00 71 1012.9
20260506050522 54 0.0 0.0 0.00 0.00 0.00 80 1012.5
20260506044522 54 0.0 0.0 0.00 0.00 0.00 80 1012.4
20260506043522 55 0.0 0.9 0.00 0.00 0.00 80 1012.3
20260506042522 54 0.0 0.0 0.00 0.00 0.00 80 1012.3
20260506041522 55 0.0 0.9 0.00 0.00 0.00 79 1012.3
20260506040522 55 0.0 0.0 0.00 0.00 0.00 79 1012.3
20260506035523 55 0.0 1.7 0.00 0.00 0.00 79 1012.3
20260506034522 54 0.0 0.9 0.00 0.00 0.00 81 1012.4
20260506033522 54 0.0 0.9 0.00 0.00 0.00 80 1012.4
20260506032523 54 0.0 2.6 0.00 0.00 0.00 80 1012.4
20260506031523 54 0.0 0.0 0.00 0.00 0.00 79 1012.3
20260506030522 55 0.0 0.0 0.00 0.00 0.00 78 1012.3
20260506025522 55 0.0 0.9 0.00 0.00 0.00 77 1012.3
20260506024524 55 0.0 0.9 0.00 0.00 0.00 75 1012.3
20260506023521 55 0.0 0.0 0.00 0.00 0.00 76 1012.2
20260506022521 56 0.0 0.0 0.00 0.00 0.00 75 1012.3
20260506021526 56 0.0 1.7 0.00 0.00 0.00 74 1012.2
20260506020522 56 0.0 0.0 0.00 0.00 0.00 76 1012.3
20260506015528 56 0.0 0.0 0.00 0.00 0.00 74 1012.3
20260506014602 57 0.0 0.0 0.00 0.00 0.00 72 1012.3
20260506013522 56 315 0.9 1.7 0.00 0.00 0.00 75 1012.3
20260506012522 57 0.0 0.9 0.00 0.00 0.00 75 1012.3
20260506011522 57 0.0 0.9 0.00 0.00 0.00 75 1012.3
20260506010602 57 0.0 3.5 0.00 0.00 0.00 75 1012.4
20260506005524 58 225 0.9 4.3 0.00 0.00 0.00 72 1012.5
20260506004521 59 248 0.9 5.2 0.00 0.00 0.00 70 1012.6
20260506003522 59 248 0.9 2.6 0.00 0.00 0.00 69 1012.6
20260506002522 59 0.0 1.7 0.00 0.00 0.00 69 1012.7
20260506001542 59 0.0 2.6 0.00 0.00 0.00 69 1012.7
20260506000543 59 225 0.9 2.6 0.00 0.00 0.00 69 1012.7
20260505235522 59 203 0.9 2.6 0.00 0.00 0.00 70 1012.8
20260505234525 59 0.0 0.9 0.00 0.00 0.00 71 1012.8
20260505233526 59 0.0 0.9 0.00 0.00 0.00 73 1012.8
20260505232523 59 0.0 0.0 0.00 0.00 0.00 73 1012.9
20260505231622 59 0.0 1.7 0.00 0.00 0.00 72 1012.8
20260505230522 59 0.0 0.9 0.00 0.00 0.00 71 1012.7
20260505225602 60 0.0 0.9 0.00 0.00 0.00 71 1012.6
20260505224522 60 0.0 0.0 0.00 0.00 0.00 70 1012.6
20260505223542 60 0.0 0.0 0.00 0.00 0.00 69 1012.8
20260505222542 60 0.0 0.9 0.00 0.00 0.00 68 1012.8
20260505221523 60 0.0 0.0 0.00 0.00 0.00 68 1012.8
20260505220522 60 0.0 0.9 0.00 0.00 0.00 68 1012.9
20260505215522 60 0.0 1.7 0.00 0.00 0.00 68 1013.0
20260505214522 60 0.0 1.7 0.00 0.00 0.00 68 1013.0
20260505213523 61 338 0.9 2.6 0.00 0.00 0.00 67 1013.0
20260505212523 61 0.0 1.7 0.00 0.00 0.00 68 1013.1
20260505211522 61 315 0.9 3.5 0.00 0.00 0.00 68 1013.3
20260505210522 61 315 1.7 4.3 0.00 0.00 0.00 68 1013.3
20260505205522 61 338 0.9 4.3 0.00 0.00 0.00 67 1013.3
20260505204542 62 338 2.6 5.2 0.00 0.00 0.00 68 1013.2